Regional Weather Roundup
Issued by NWS

Home | Current Version | Previous Version | Graphics & Text | Print | Product List | Glossary On
Versions: 1 2 3 4 5 6 7 8 9 10 11 12 13 14 15 16 17 18 19 20 21 22 23 24 25 26 27 28 29 30 31 32 33 34 35 36 37 38 39 40 41 42 43 44 45 46 47 48 49 50
000
ASUS43 KLMK 192302
RWRKY
KENTUCKY REGIONAL WEATHER ROUNDUP
NATIONAL WEATHER SERVICE LOUISVILLE KY
700 PM EDT FRI SEP 19 2014

NOTE "FAIR" INDICATES FEW OR NO CLOUDS BELOW 12,000 FEET
WITH NO SIGNIFICANT WEATHER AND/OR OBSTRUCTIONS TO VISIBILITY.

KYZ001>023-026-027-061>063-070>075-200000-
WESTERN AND SOUTH CENTRAL KENTUCKY

CITY           SKY/WX    TMP DP  RH WIND       PRES   REMARKS
PADUCAH        SUNNY     82  62  50 CALM      30.01R
HENDERSON      CLEAR     73  55  53 SE3       30.02S
OWENSBORO      CLEAR     79  59  50 SE6       30.03S
HOPKINSVILLE   CLEAR     81  62  51 S5        30.01F
BOWLING GREEN  CLEAR     78  61  55 SE6       30.03F
GLASGOW        CLEAR     79  57  46 CALM      30.04S
$$

KYZ024-025-028>034-038-045-046-053-200000-
NORTH CENTRAL KENTUCKY

CITY           SKY/WX    TMP DP  RH WIND       PRES   REMARKS
LOUISVILLE/SDF PTCLDY    77  55  46 E8        30.05S
LOUISVILLE/LOU CLEAR     76  54  46 SE6       30.06F
FORT KNOX      CLEAR     74  59  59 NE5       30.04F
$$

KYZ035>037-039>044-047>052-055>060-089>105-200000-
NORTHEAST KENTUCKY

CITY           SKY/WX    TMP DP  RH WIND       PRES   REMARKS
LEXINGTON      CLEAR     76  56  49 SE3       30.08S
COVINGTON      PTCLDY    72  49  44 SE6       30.08S
FRANKFORT      CLEAR     74  55  51 E5        30.07S
$$

KYZ054-064>069-076>088-106>120-200000-
SOUTHEAST KENTUCKY

CITY           SKY/WX    TMP DP  RH WIND       PRES   REMARKS
JACKSON        CLEAR     73  62  68 CALM      30.11R
LONDON         CLEAR     79  57  46 SE3       30.09S
SOMERSET       CLEAR     79  55  44 CALM      30.08S
MIDDLESBORO    CLEAR     74  62  66 W3        30.10R
MONTICELLO     CLEAR     80  60  50 CALM      30.08S
$$



USA.gov is the U.S. government's official web portal to all federal, state and local government web resources and services.